• Em Portugal
  • Lista de países
  • Para 7 dias
  • Temperatura da água
  • Mapas de satélite
  • Mapa do tempo
  • Widgets de tempo
  • user-avatar
    Iniciar Sessão

    Previsão horária em Giumri

    Hoje, 23 Setembro, Domingo

    Tempo Temperatura Precipitação Vento Pressão Humidade
    00:00 +14°C° 0.3 mm 1 m/s 636 mmHg 82%
    01:00 +13°C° 0.1 mm 1 m/s 636 mmHg 83%
    02:00 +13°C° 0.1 mm 1 m/s 636 mmHg 84%
    03:00 +12°C° 0 mm 1 m/s 635 mmHg 84%
    04:00 +12°C° 0 mm 1 m/s 635 mmHg 85%
    05:00 +11°C° 0 mm 1 m/s 635 mmHg 86%
    06:00 +11°C° 0 mm 1 m/s 635 mmHg 87%
    07:00 +13°C° 0 mm 1 m/s 636 mmHg 79%
    08:00 +15°C° 0 mm 1 m/s 636 mmHg 70%
    09:00 +16°C° 0 mm 0 m/s 637 mmHg 61%
    10:00 +19°C° 0 mm 1 m/s 637 mmHg 57%
    11:00 +20°C° 0 mm 1 m/s 637 mmHg 52%
    12:00 +21°C° 0 mm 1 m/s 637 mmHg 48%
    13:00 +21°C° 0.4 mm 2 m/s 637 mmHg 47%
    14:00 +21°C° 0.4 mm 2 m/s 637 mmHg 46%
    15:00 +21°C° 0.4 mm 2 m/s 637 mmHg 45%
    16:00 +20°C° 0.9 mm 2 m/s 637 mmHg 52%
    17:00 +18°C° 0.9 mm 2 m/s 636 mmHg 59%
    18:00 +17°C° 0.9 mm 2 m/s 636 mmHg 66%
    19:00 +16°C° 0.5 mm 2 m/s 636 mmHg 71%
    20:00 +15°C° 0.5 mm 2 m/s 636 mmHg 76%
    21:00 +14°C° 0.5 mm 2 m/s 637 mmHg 81%
    22:00 +14°C° 0.1 mm 2 m/s 637 mmHg 83%
    23:00 +13°C° 0.1 mm 2 m/s 637 mmHg 85%

    Amanhã, 24 Setembro, Segunda-feira

    Tempo Temperatura Precipitação Vento Pressão Humidade
    00:00 +13°C° 0.1 mm 2 m/s 637 mmHg 87%
    01:00 +13°C° 0 mm 2 m/s 637 mmHg 87%
    02:00 +12°C° 0 mm 2 m/s 637 mmHg 88%
    03:00 +12°C° 0 mm 2 m/s 636 mmHg 88%
    04:00 +12°C° 0 mm 2 m/s 636 mmHg 88%
    05:00 +10°C° 0 mm 2 m/s 636 mmHg 88%
    06:00 +10°C° 0 mm 2 m/s 636 mmHg 87%
    07:00 +13°C° 0 mm 2 m/s 637 mmHg 78%
    08:00 +15°C° 0 mm 1 m/s 638 mmHg 69%
    09:00 +18°C° 0 mm 1 m/s 638 mmHg 60%
    10:00 +20°C° 0 mm 1 m/s 639 mmHg 53%
    11:00 +21°C° 0 mm 1 m/s 639 mmHg 47%
    12:00 +22°C° 0 mm 1 m/s 639 mmHg 41%
    13:00 +23°C° 0 mm 1 m/s 639 mmHg 39%
    14:00 +23°C° 0 mm 1 m/s 638 mmHg 38%
    15:00 +23°C° 0 mm 1 m/s 638 mmHg 36%
    16:00 +22°C° 0 mm 1 m/s 638 mmHg 42%
    17:00 +20°C° 0 mm 1 m/s 637 mmHg 48%
    18:00 +19°C° 0 mm 1 m/s 637 mmHg 54%
    19:00 +18°C° 0 mm 1 m/s 637 mmHg 60%
    20:00 +16°C° 0 mm 1 m/s 637 mmHg 65%
    21:00 +15°C° 0 mm 1 m/s 637 mmHg 71%
    22:00 +14°C° 0 mm 1 m/s 636 mmHg 74%
    23:00 +14°C° 0 mm 1 m/s 636 mmHg 77%

    Depois de amanhã, 25 Setembro, Terça-feira

    Tempo Temperatura Precipitação Vento Pressão Humidade
    00:00 +13°C° 0 mm 1 m/s 636 mmHg 80%
    01:00 +13°C° 0 mm 1 m/s 636 mmHg 81%
    02:00 +12°C° 0 mm 0 m/s 636 mmHg 82%
    03:00 +11°C° 0 mm 0 m/s 635 mmHg 82%
    04:00 +11°C° 0 mm 0 m/s 635 mmHg 81%
    05:00 +11°C° 0 mm 0 m/s 635 mmHg 80%
    06:00 +12°C° 0 mm 1 m/s 635 mmHg 78%
    07:00 +14°C° 0 mm 1 m/s 635 mmHg 67%
    08:00 +18°C° 0 mm 1 m/s 636 mmHg 56%
    09:00 +19°C° 0 mm 2 m/s 637 mmHg 45%
    10:00 +20°C° 0 mm 2 m/s 637 mmHg 41%
    11:00 +23°C° 0 mm 2 m/s 637 mmHg 37%
    12:00 +24°C° 0 mm 2 m/s 637 mmHg 33%
    13:00 +24°C° 0 mm 2 m/s 637 mmHg 32%
    14:00 +25°C° 0 mm 2 m/s 637 mmHg 32%
    15:00 +25°C° 0 mm 2 m/s 636 mmHg 31%
    16:00 +23°C° 0 mm 2 m/s 636 mmHg 39%
    17:00 +21°C° 0 mm 1 m/s 635 mmHg 46%
    18:00 +19°C° 0 mm 1 m/s 635 mmHg 54%
    19:00 +17°C° 0 mm 2 m/s 635 mmHg 60%
    20:00 +16°C° 0 mm 2 m/s 635 mmHg 66%
    21:00 +16°C° 0 mm 2 m/s 635 mmHg 72%
    22:00 +15°C° 0.1 mm 2 m/s 635 mmHg 75%
    23:00 +15°C° 0.1 mm 2 m/s 635 mmHg 78%

    26 Setembro, Quarta-feira

    Tempo Temperatura Precipitação Vento Pressão Humidade
    00:00 +14°C° 0.1 mm 2 m/s 635 mmHg 81%
    01:00 +14°C° 0.3 mm 2 m/s 635 mmHg 81%
    02:00 +13°C° 0.3 mm 2 m/s 635 mmHg 82%
    03:00 +13°C° 0.3 mm 2 m/s 634 mmHg 83%
    04:00 +13°C° 0.2 mm 2 m/s 634 mmHg 83%
    05:00 +12°C° 0.2 mm 2 m/s 634 mmHg 82%
    06:00 +12°C° 0.2 mm 2 m/s 634 mmHg 82%
    07:00 +14°C° 0 mm 2 m/s 635 mmHg 75%
    08:00 +16°C° 0 mm 2 m/s 636 mmHg 68%
    09:00 +17°C° 0 mm 2 m/s 636 mmHg 61%
    10:00 +18°C° 0.1 mm 2 m/s 636 mmHg 58%
    11:00 +19°C° 0.1 mm 2 m/s 636 mmHg 55%
    12:00 +20°C° 0.1 mm 2 m/s 636 mmHg 52%
    13:00 +20°C° 0.2 mm 2 m/s 636 mmHg 52%
    14:00 +20°C° 0.2 mm 2 m/s 636 mmHg 53%
    15:00 +20°C° 0.2 mm 3 m/s 635 mmHg 53%
    16:00 +19°C° 0.3 mm 3 m/s 635 mmHg 60%
    17:00 +18°C° 0.3 mm 3 m/s 635 mmHg 67%
    18:00 +16°C° 0.3 mm 3 m/s 634 mmHg 73%
    19:00 +14°C° 0.1 mm 3 m/s 634 mmHg 77%
    20:00 +13°C° 0.1 mm 3 m/s 635 mmHg 81%
    21:00 +12°C° 0.1 mm 3 m/s 635 mmHg 85%
    22:00 +13°C° 0 mm 2 m/s 635 mmHg 86%
    23:00 +12°C° 0 mm 2 m/s 635 mmHg 88%

    27 Setembro, Quinta-feira

    Tempo Temperatura Precipitação Vento Pressão Humidade
    00:00 +12°C° 0 mm 2 m/s 635 mmHg 89%
    01:00 +12°C° 0 mm 2 m/s 635 mmHg 89%
    02:00 +10°C° 0 mm 2 m/s 635 mmHg 90%
    03:00 +10°C° 0 mm 2 m/s 635 mmHg 91%
    04:00 +10°C° 0 mm 2 m/s 635 mmHg 91%
    05:00 +10°C° 0 mm 2 m/s 635 mmHg 91%
    06:00 +10°C° 0 mm 2 m/s 635 mmHg 91%
    07:00 +12°C° 0 mm 2 m/s 636 mmHg 85%
    08:00 +14°C° 0 mm 2 m/s 636 mmHg 78%
    09:00 +16°C° 0 mm 2 m/s 637 mmHg 71%
    10:00 +17°C° 0 mm 2 m/s 637 mmHg 66%
    11:00 +18°C° 0 mm 3 m/s 637 mmHg 60%
    12:00 +19°C° 0 mm 3 m/s 638 mmHg 55%
    13:00 +20°C° 0.1 mm 3 m/s 637 mmHg 54%
    14:00 +20°C° 0.1 mm 3 m/s 637 mmHg 52%
    15:00 +21°C° 0.1 mm 3 m/s 637 mmHg 51%
    16:00 +19°C° 0.2 mm 3 m/s 637 mmHg 58%
    17:00 +18°C° 0.2 mm 2 m/s 637 mmHg 65%
    18:00 +16°C° 0.2 mm 2 m/s 636 mmHg 72%
    19:00 +16°C° 0.1 mm 2 m/s 637 mmHg 77%
    20:00 +15°C° 0.1 mm 2 m/s 637 mmHg 82%
    21:00 +14°C° 0.1 mm 2 m/s 637 mmHg 87%
    22:00 +14°C° 0 mm 2 m/s 637 mmHg 88%
    23:00 +13°C° 0 mm 2 m/s 637 mmHg 89%

    28 Setembro, Sexta-feira

    Tempo Temperatura Precipitação Vento Pressão Humidade
    00:00 +13°C° 0 mm 2 m/s 636 mmHg 90%
    01:00 +12°C° 0 mm 2 m/s 636 mmHg 90%
    02:00 +12°C° 0 mm 2 m/s 636 mmHg 91%
    03:00 +12°C° 0 mm 2 m/s 636 mmHg 91%
    04:00 +12°C° 0 mm 1 m/s 636 mmHg 90%
    05:00 +12°C° 0 mm 1 m/s 636 mmHg 90%
    06:00 +11°C° 0 mm 1 m/s 636 mmHg 90%
    07:00 +14°C° 0 mm 1 m/s 637 mmHg 79%
    08:00 +16°C° 0 mm 2 m/s 638 mmHg 68%
    09:00 +18°C° 0 mm 2 m/s 639 mmHg 58%
    10:00 +20°C° 0 mm 3 m/s 639 mmHg 51%
    11:00 +22°C° 0 mm 3 m/s 639 mmHg 45%
    12:00 +23°C° 0 mm 4 m/s 639 mmHg 39%
    13:00 +25°C° 0 mm 4 m/s 639 mmHg 38%
    14:00 +25°C° 0 mm 4 m/s 639 mmHg 36%
    15:00 +25°C° 0 mm 4 m/s 638 mmHg 35%
    16:00 +22°C° 0 mm 3 m/s 638 mmHg 41%
    17:00 +20°C° 0 mm 3 m/s 637 mmHg 48%
    18:00 +18°C° 0 mm 2 m/s 637 mmHg 54%
    19:00 +17°C° 0 mm 2 m/s 637 mmHg 57%
    20:00 +17°C° 0 mm 2 m/s 637 mmHg 60%
    21:00 +16°C° 0 mm 1 m/s 637 mmHg 64%
    22:00 +15°C° 0 mm 1 m/s 637 mmHg 62%
    23:00 +15°C° 0 mm 1 m/s 637 mmHg 61%
    Mostrar mais